星链-1234 (STARLINK-1234 )

导读 | 星芒AI

STARLINK-1234 是 SpaceX Starlink 项目中的一颗低轨通信卫星,属于该星座的众多组网卫星之一。该卫星旨在提供全球范围内的高速互联网接入服务,特别服务于偏远和网络基础设施薄弱的地区。STARLINK-1234 运行在约 550 公里的轨道高度,采用先进通信技术,具备高带宽和低延迟特性。其成功发射和运行有助于增强 Starlink 网络的覆盖能力与稳定性,推动全球互联网普及。

基本信息
目录编号:
45190
目录名称:
STARLINK-1234
国际标识:
2020-012N
轨道中心:
EARTH
卫星名称:
星链-1234
卫星全名:
星链-1234 (STARLINK-1234 )
卫星状态:
在轨 (已飞行2128 天)
发射日期:
2020-02-17 UTC
国别 :
美国 (US)
星等 :
--
轨道信息
数据来源 国际轨道数据
星历时间: 2025-12-14T19:49:03+0800
1天前
查看轨道信息
半长轴: 6814.236km
偏心率: 0.0007331
轨道倾角: 53.051°
近地点辐角 3.398°
升交点赤经 15.793°
平近点角 356.708°
近地点: 431.105km
远地点: 441.097km
周期: 93.301分钟
每日圈数: 15.433948
详细信息
固有亮度:
5
最大亮度:
2.5
卫星平台:
Starlink V1.0
覆盖范围:
全球
运营商:
太空探索技术公司
运营商所在国:
美国
制造商(研发单位):
太空探索技术公司
制造商所在国:
美国
使用方式:
暂无
卫星简介
星链(Starlink)计划是由太空探索技术公司(SpaceX)提出的一个巨型低轨卫星互联网星座项目,计划在2019年至2024年间在太空搭建由约1.2万颗卫星组成的“星链”网络,其中1584颗将部署在地球上空550千米处的近地轨道,并从2020年开始工作。该卫星仍在工作。
2D轨道图
3D轨道图
轨道高度分析图
轨道倾角分析图
轨道综合分析图
查看轨道综合分析图